Temperature
-4 -4 -3 -3 -3 -3 -3 -3 -2 -2 -2 -2 -2 -2 -2 -2 -2 -2 -1 -1 -1 -1 -1 -1 -1 -1 -1 -0 -0 -0 -0 -0 -0 0 1 1 1 2 2 2 2 3 3
-5 -5 -4 -4 -4 -4 -4 -3 -3 -3 -3 -3 -3 -2 -2 -2 -2 -2 -2 -2 -2 -2 -2 -2 -2 -2 -1 -1 -1 -1 -1 -1 -1 -0 -0 0 1 1 1 1 2 2 2
-5 -5 -5 -5 -5 -5 -5 -4 -4 -4 -4 -3 -3 -3 -3 -3 -3 -3 -3 -3 -3 -2 -2 -2 -2 -2 -2 -2 -2 -1 -1 -1 -1 -1 -1 -1 -0 0 0 1 1 1 2
-6 -6 -6 -6 -6 -6 -5 -5 -5 -5 -4 -4 -4 -4 -4 -3 -3 -3 -3 -3 -3 -3 -3 -3 -3 -3 -3 -3 -2 -2 -2 -2 -2 -2 -2 -2 -1 -1 -0 0 0 1 1
-7 -7 -7 -7 -7 -6 -6 -6 -6 -5 -5 -5 -5 -4 -4 -4 -4 -4 -4 -4 -4 -4 -4 -3 -3 -3 -3 -3 -3 -3 -3 -3 -3 -3 -2 -2 -2 -2 -1 -1 -0 -0 0
-7 -7 -7 -7 -7 -7 -7 -7 -6 -6 -6 -6 -5 -5 -5 -5 -4 -5 -5 -4 -4 -4 -4 -4 -4 -4 -4 -4 -4 -4 -4 -3 -3 -3 -3 -3 -2 -2 -2 -2 -1 -1 -1
-8 -8 -8 -8 -8 -8 -8 -7 -7 -7 -7 -6 -6 -6 -6 -5 -5 -5 -5 -5 -5 -5 -5 -5 -5 -5 -5 -4 -4 -4 -4 -4 -4 -4 -3 -3 -3 -3 -2 -2 -2 -2 -1
-8 -8 -8 -8 -8 -8 -8 -8 -8 -8 -7 -7 -7 -7 -6 -6 -6 -6 -6 -6 -5 -5 -5 -5 -5 -5 -5 -5 -5 -5 -5 -4 -4 -4 -4 -4 -3 -3 -3 -3 -2 -2 -2
-9 -9 -9 -9 -9 -9 -9 -9 -9 -8 -8 -8 -8 -7 -7 -7 -6 -6 -6 -6 -6 -6 -6 -6 -6 -5 -5 -5 -5 -5 -5 -5 -5 -5 -4 -4 -4 -4 -4 -4 -3 -3 -3
-10 -10 -10 -10 -9 -9 -9 -9 -9 -9 -9 -8 -8 -8 -8 -7 -7 -7 -7 -7 -7 -7 -6 -6 -6 -6 -6 -6 -6 -6 -6 -5 -5 -5 -5 -5 -4 -4 -4 -4 -4 -4 -4
-10 -10 -10 -10 -10 -10 -10 -10 -10 -10 -9 -9 -9 -8 -8 -8 -8 -8 -7 -7 -7 -7 -7 -7 -6 -6 -6 -6 -6 -6 -6 -6 -6 -6 -5 -5 -5 -5 -4 -4 -4 -4 -4
-11 -11 -10 -10 -10 -10 -10 -10 -10 -10 -10 -10 -9 -9 -9 -9 -8 -8 -8 -8 -8 -7 -7 -7 -7 -7 -7 -7 -6 -6 -6 -6 -6 -6 -6 -6 -5 -5 -5 -5 -5 -5 -5
-11 -11 -11 -11 -11 -11 -11 -11 -10 -11 -11 -11 -10 -10 -10 -9 -9 -9 -8 -8 -8 -8 -8 -8 -8 -7 -7 -7 -7 -7 -7 -7 -7 -7 -7 -6 -6 -6 -6 -5 -5 -5 -5
-12 -11 -11 -11 -11 -11 -11 -11 -11 -11 -11 -11 -11 -11 -11 -10 -10 -9 -9 -9 -9 -8 -8 -8 -8 -8 -8 -8 -7 -7 -7 -7 -7 -7 -7 -7 -6 -6 -6 -6 -6 -6 -6
-12 -12 -12 -12 -12 -11 -12 -12 -12 -12 -12 -12 -12 -12 -11 -11 -10 -10 -10 -10 -9 -9 -9 -9 -9 -8 -8 -8 -8 -8 -8 -8 -7 -7 -7 -7 -7 -7 -7 -7 -7 -7 -7
-12 -12 -12 -12 -12 -12 -12 -12 -12 -12 -12 -12 -12 -12 -12 -11 -11 -10 -10 -10 -10 -10 -9 -9 -9 -9 -9 -9 -9 -9 -8 -8 -8 -8 -8 -7 -7 -7 -7 -7 -7 -7 -7
-13 -13 -12 -13 -13 -13 -13 -13 -12 -12 -12 -12 -12 -12 -12 -12 -11 -11 -11 -10 -10 -10 -10 -10 -10 -10 -10 -10 -9 -9 -9 -9 -9 -8 -8 -8 -8 -8 -8 -8 -8 -8 -8
-13 -13 -13 -13 -13 -13 -13 -13 -13 -13 -12 -12 -12 -12 -12 -12 -12 -11 -11 -11 -11 -11 -11 -11 -11 -10 -10 -10 -10 -10 -10 -9 -9 -9 -9 -9 -8 -8 -8 -8 -8 -8 -8
-13 -13 -13 -13 -13 -13 -13 -13 -13 -13 -13 -13 -12 -12 -12 -12 -12 -12 -12 -11 -12 -12 -11 -11 -11 -11 -11 -11 -10 -10 -10 -10 -10 -10 -10 -9 -9 -9 -9 -9 -9 -9 -9
-13 -13 -13 -13 -13 -14 -14 -14 -14 -14 -13 -13 -13 -13 -13 -13 -13 -13 -12 -12 -12 -12 -12 -12 -12 -11 -11 -11 -11 -11 -11 -11 -10 -10 -10 -10 -10 -10 -10 -10 -9 -9 -9
-13 -13 -13 -14 -14 -14 -14 -14 -14 -14 -14 -14 -14 -14 -14 -13 -13 -13 -13 -13 -13 -13 -13 -13 -12 -12 -12 -12 -12 -11 -11 -11 -11 -11 -11 -11 -11 -10 -10 -10 -10 -10 -10
-13 -13 -14 -14 -14 -14 -14 -14 -14 -14 -14 -14 -14 -14 -14 -14 -14 -14 -14 -14 -13 -13 -13 -13 -13 -13 -13 -12 -12 -12 -12 -12 -12 -11 -11 -11 -11 -11 -11 -11 -11 -11 -10
-14 -14 -14 -14 -14 -14 -14 -14 -14 -14 -14 -14 -14 -14 -14 -14 -14 -14 -14 -14 -14 -14 -14 -13 -13 -13 -13 -13 -13 -13 -12 -12 -12 -12 -12 -12 -12 -11 -11 -11 -11 -11 -11
-14 -14 -14 -14 -14 -14 -14 -14 -14 -14 -14 -14 -15 -15 -15 -15 -15 -14 -14 -14 -14 -14 -14 -14 -14 -13 -13 -13 -13 -13 -13 -13 -12 -12 -12 -12 -12 -12 -12 -12 -12 -11 -11
-14 -14 -14 -14 -14 -14 -15 -15 -15 -15 -15 -15 -15 -15 -15 -15 -15 -15 -15 -15 -14 -14 -14 -14 -14 -14 -14 -14 -13 -13 -13 -13 -13 -13 -13 -12 -12 -12 -12 -12 -12 -12 -12
-14 -14 -15 -15 -15 -15 -15 -15 -15 -15 -15 -15 -15 -15 -15 -15 -15 -15 -15 -15 -15 -15 -14 -14 -14 -14 -14 -14 -14 -13 -13 -13 -13 -13 -13 -13 -13 -13 -13 -13 -12 -12 -12
Wind_Speed
7 7 6 5 5 4 4 4 4 5 5 4 4 4 4 5 4 4 4 4 5 5 5 5 6 5 4 4 3 3 4 4 6 4 2 2 3 3 3 4 5 5 6
7 7 6 6 6 6 5 5 5 5 5 5 5 5 5 5 5 5 6 6 6 6 6 6 6 5 5 5 4 5 4 4 5 5 3 3 4 4 4 4 4 5 5
6 6 6 6 6 6 7 6 6 6 6 5 5 5 5 5 6 6 6 6 7 7 7 7 7 6 6 5 5 5 5 4 3 4 4 3 3 3 3 4 4 4 5
7 6 6 6 7 7 7 7 7 7 6 6 6 5 5 5 6 6 6 6 6 6 6 7 7 7 7 6 6 6 5 4 4 4 4 3 3 3 2 3 3 2 3
7 7 6 6 6 7 7 7 7 7 7 6 6 6 5 5 6 6 6 7 6 6 7 7 7 8 9 8 7 6 6 5 5 5 4 3 3 3 4 3 3 2 3
7 7 7 7 7 7 7 7 7 7 7 7 6 6 6 6 9 11 8 6 6 7 7 7 7 8 9 11 11 10 8 7 7 6 5 6 6 5 4 4 3 2 3
7 7 7 7 7 7 8 7 7 7 7 7 7 6 7 7 10 10 11 6 6 6 6 6 6 7 8 6 8 10 10 12 11 8 7 7 7 6 5 5 5 5 4
7 7 7 7 7 8 7 7 7 7 7 7 7 7 7 8 11 11 11 7 6 6 6 6 6 6 7 7 6 7 7 7 9 8 7 7 7 6 7 6 5 3 3
7 7 7 7 8 8 8 8 7 7 7 7 7 7 7 8 11 11 10 5 5 6 6 6 6 6 10 10 7 7 7 7 9 11 11 10 11 11 9 4 4 4 3
7 8 7 7 7 7 8 8 7 7 7 8 8 7 7 7 10 11 10 5 5 5 5 6 8 9 11 11 8 7 8 6 5 5 7 8 8 9 11 8 6 5 3
7 8 8 7 7 7 7 7 6 7 7 7 8 7 6 8 10 11 10 5 5 5 5 4 5 9 11 11 10 7 9 7 5 5 5 4 4 4 5 6 6 5 5
7 7 7 7 7 7 6 6 6 6 7 7 7 7 6 7 9 10 10 9 7 5 5 4 5 8 10 10 8 8 9 8 4 4 4 4 4 4 3 4 5 5 5
7 7 7 8 7 7 6 6 6 5 5 6 6 6 6 6 7 11 11 10 9 5 4 6 7 8 8 7 8 8 6 4 4 4 5 5 4 4 3 2 2 3 3
7 7 7 7 7 6 6 5 5 5 5 6 6 6 6 6 6 5 5 6 7 6 4 5 7 7 6 6 5 5 4 4 4 4 4 3 2 3 3 3 3 3 2
6 7 7 7 7 6 6 5 6 5 5 6 5 6 6 6 8 10 7 5 4 4 3 2 2 2 2 2 2 2 2 3 3 3 3 3 3 3 3 3 3 3 3
6 6 6 6 6 6 6 6 9 9 11 11 10 9 8 10 12 11 11 10 9 7 3 2 2 2 2 2 2 2 2 2 3 2 3 3 3 4 3 3 3 4 4
6 6 6 6 5 6 6 6 7 8 10 11 11 11 11 11 11 11 11 9 8 7 3 2 2 2 2 2 1 1 2 2 1 2 2 3 3 3 3 3 3 3 4
6 8 7 5 5 5 6 6 6 7 7 6 8 11 12 12 11 10 10 7 5 4 2 2 2 2 2 2 1 1 2 1 1 2 2 2 2 3 3 3 3 4 4
6 5 5 5 5 5 5 5 5 6 6 6 5 7 10 10 10 10 8 4 3 3 3 2 2 2 2 2 2 1 1 2 2 2 2 2 2 2 2 3 3 4 3
5 9 8 5 5 5 5 5 5 5 5 5 5 5 6 6 5 5 4 3 3 3 3 3 3 3 2 2 2 2 1 2 2 2 2 2 2 2 2 3 3 3 3
5 7 9 6 5 5 5 5 5 5 5 5 5 7 8 5 4 5 4 3 3 3 3 3 3 3 3 2 2 2 2 2 2 2 2 2 2 2 2 2 2 2 2
5 5 5 5 5 5 5 5 5 5 5 5 5 6 10 5 4 4 4 4 3 3 3 3 3 3 3 2 2 2 3 3 2 2 2 2 2 2 2 2 2 2 2
5 5 5 5 5 7 7 5 4 4 5 5 5 5 5 4 4 4 4 4 4 4 4 4 3 3 4 4 3 3 3 3 3 3 3 2 2 2 2 2 3 3 2
4 5 5 5 5 4 5 5 5 5 5 5 5 5 5 4 4 5 4 4 4 4 5 4 4 4 5 5 5 4 4 5 4 4 4 3 3 3 2 2 3 3 3
4 5 5 5 5 5 5 5 5 5 5 5 5 5 5 5 5 4 4 4 5 5 5 5 5 5 6 7 7 6 6 7 6 4 4 3 3 3 3 3 3 3 3
5 5 5 4 4 5 5 5 5 5 5 5 5 5 5 5 5 5 4 4 4 5 5 6 6 7 7 7 8 8 8 7 6 5 3 3 3 3 3 3 3 3 3
Wind_Direction
347 343 342 337 332 325 313 307 303 294 281 269 265 263 258 256 256 247 242 243 243 248 248 244 248 246 241 241 234 231 232 225 243 257 258 253 235 229 230 235 241 241 238
342 340 336 332 330 328 324 318 313 303 291 273 267 262 258 255 252 249 246 244 243 243 244 242 244 244 240 239 229 230 229 226 232 250 256 248 248 230 221 224 230 236 236
338 335 333 332 333 331 327 321 319 311 305 295 280 267 264 258 252 250 247 246 244 244 239 237 239 236 236 239 232 230 232 234 233 240 254 251 253 239 234 245 230 221 235
336 331 329 330 329 325 323 321 318 313 306 299 288 278 272 267 260 255 251 252 250 247 244 243 239 234 234 234 236 229 228 229 232 232 244 246 247 240 222 232 249 233 235
329 324 323 323 325 325 323 321 319 315 310 303 296 285 276 268 262 256 252 251 250 251 250 249 245 241 240 236 237 229 221 223 227 230 235 242 243 230 224 230 238 242 253
325 323 325 327 327 325 322 320 320 318 314 308 299 294 283 276 273 270 268 255 247 246 250 251 249 247 247 246 246 243 234 227 225 228 237 234 237 237 231 229 231 242 253
326 325 328 329 327 324 323 324 320 316 311 307 304 298 292 286 286 282 275 269 252 248 246 248 255 251 244 241 248 250 248 246 240 232 233 236 235 228 220 223 224 231 248
326 325 329 329 324 321 322 320 317 314 312 307 304 299 296 293 292 287 283 274 258 250 245 241 247 250 242 238 239 242 244 248 249 242 236 239 240 229 221 224 229 243 259
327 325 325 323 320 320 320 317 315 314 311 307 303 300 297 298 298 291 287 275 262 259 255 247 242 242 248 245 239 237 244 250 250 246 245 245 246 243 231 219 215 216 243
321 318 316 314 313 313 312 310 311 310 306 309 306 300 294 294 297 294 288 275 266 265 261 254 250 249 251 247 237 233 240 246 244 249 251 250 245 239 232 220 209 207 221
318 318 317 315 311 307 307 309 311 312 314 313 310 307 301 301 301 296 288 274 263 263 263 259 254 256 254 252 246 238 243 244 236 235 238 238 238 233 230 222 209 206 212
319 318 317 316 313 313 312 311 312 314 316 315 314 314 311 309 310 306 298 284 275 261 261 260 256 259 258 257 256 254 252 250 242 236 233 230 229 226 220 215 214 214 216
319 318 316 316 315 314 311 312 314 315 317 317 318 317 318 317 315 314 307 300 292 278 269 268 266 265 263 261 262 259 255 244 235 236 236 234 224 213 196 193 197 205 219
314 314 314 316 317 318 315 313 313 314 313 315 317 317 316 318 319 319 313 306 298 292 285 281 280 277 272 269 263 254 246 234 231 236 237 233 209 199 206 201 207 202 221
310 310 314 316 314 316 315 308 306 295 299 304 305 305 309 311 312 315 316 309 304 288 285 283 285 282 268 260 250 240 234 233 237 231 229 226 219 211 217 207 207 209 217
311 313 314 314 313 314 313 313 313 310 311 307 306 308 305 310 317 318 315 313 317 311 302 296 288 285 276 270 260 254 246 240 236 229 228 228 223 215 215 215 211 210 215
301 306 308 310 311 314 315 316 317 318 315 316 316 317 317 320 321 322 319 318 322 323 313 303 286 281 281 283 268 256 256 263 245 230 230 232 225 216 211 213 212 213 217
300 304 307 302 304 305 307 308 310 315 319 318 318 323 327 326 326 327 326 325 326 330 330 321 306 295 282 280 285 282 273 263 248 241 234 224 219 217 214 211 212 214 217
297 297 296 297 300 301 304 306 308 310 312 314 319 324 329 329 331 334 336 332 325 328 332 333 329 325 319 308 291 283 276 263 247 238 238 229 218 217 220 214 210 215 216
295 301 305 301 300 303 304 307 308 310 313 315 320 323 327 329 329 331 334 335 331 328 328 328 329 324 317 312 307 296 287 272 250 237 244 242 230 223 221 218 212 211 217
300 303 307 308 305 304 304 303 306 305 306 308 310 313 321 323 323 322 321 323 321 319 321 320 318 319 317 315 311 308 297 284 265 247 242 243 231 230 228 223 218 212 206
297 300 302 302 303 303 305 303 301 304 306 307 309 311 319 324 322 320 322 321 320 316 311 307 306 306 300 295 296 298 299 287 268 251 246 243 237 233 232 225 215 212 205
297 301 302 301 300 306 311 311 307 302 303 306 309 312 316 317 316 315 315 316 318 319 320 313 303 304 307 300 290 278 269 269 267 251 241 243 241 232 221 217 213 212 215
296 296 299 301 301 300 302 304 303 302 300 300 303 305 306 306 304 305 307 308 309 311 314 312 305 299 304 308 305 292 274 267 263 245 230 223 224 227 220 218 218 217 213
293 294 296 298 301 301 301 301 301 302 302 302 301 302 303 303 301 301 302 304 304 304 305 306 302 299 300 301 299 293 282 278 274 253 224 219 222 221 218 218 221 221 215
298 299 298 298 298 300 301 302 302 302 301 300 300 300 302 302 301 300 301 303 304 303 302 302 300 300 298 297 295 292 288 283 271 261 237 216 216 219 217 217 216 216 211
Height
1482 1481 1480 1479 1478 1478 1477 1476 1476 1476 1475 1475 1476 1476 1476 1476 1477 1478 1478 1479 1480 1481 1481 1482 1483 1484 1485 1486 1487 1488 1490 1491 1491 1491 1493 1493 1494 1495 1497 1498 1499 1500 1501
1479 1478 1477 1476 1475 1474 1473 1473 1472 1472 1471 1471 1471 1471 1471 1472 1472 1473 1473 1474 1475 1475 1476 1477 1478 1479 1480 1481 1482 1483 1484 1485 1486 1486 1486 1488 1489 1490 1491 1492 1493 1494 1496
1477 1476 1474 1473 1471 1470 1469 1469 1468 1467 1466 1466 1466 1466 1466 1466 1467 1467 1468 1468 1469 1470 1471 1471 1472 1473 1474 1475 1476 1477 1479 1480 1481 1481 1481 1482 1484 1485 1486 1487 1488 1489 1490
1475 1473 1471 1470 1468 1467 1466 1465 1464 1463 1462 1461 1461 1461 1461 1461 1462 1462 1462 1463 1463 1464 1465 1466 1466 1467 1468 1470 1471 1472 1473 1474 1475 1476 1476 1477 1478 1479 1480 1481 1481 1483 1484
1473 1471 1469 1467 1466 1464 1462 1461 1460 1459 1458 1457 1457 1457 1457 1457 1457 1457 1457 1457 1458 1458 1459 1460 1461 1461 1463 1464 1466 1467 1468 1469 1469 1470 1471 1472 1472 1474 1475 1475 1476 1477 1478
1471 1469 1467 1465 1463 1461 1459 1457 1456 1455 1454 1453 1452 1452 1452 1452 1452 1452 1452 1452 1452 1453 1453 1454 1455 1456 1457 1459 1460 1461 1463 1463 1464 1465 1465 1466 1467 1469 1470 1470 1471 1472 1472
1468 1466 1464 1462 1460 1458 1456 1454 1452 1451 1450 1449 1448 1447 1447 1447 1447 1447 1447 1447 1447 1447 1448 1449 1449 1450 1452 1453 1454 1455 1456 1457 1459 1460 1460 1460 1462 1463 1464 1465 1466 1467 1467
1465 1463 1461 1459 1457 1455 1453 1451 1449 1448 1446 1445 1444 1443 1442 1442 1442 1442 1442 1442 1442 1442 1443 1443 1444 1445 1446 1447 1448 1449 1450 1451 1452 1453 1454 1455 1457 1458 1459 1460 1460 1461 1462
1462 1460 1458 1456 1454 1452 1450 1448 1446 1444 1442 1441 1440 1439 1438 1437 1437 1437 1437 1437 1436 1437 1437 1438 1438 1439 1440 1442 1442 1443 1444 1445 1446 1448 1449 1450 1451 1452 1453 1454 1455 1456 1456
1460 1458 1456 1454 1451 1449 1447 1445 1443 1441 1439 1437 1436 1435 1434 1433 1433 1433 1433 1432 1431 1431 1432 1432 1433 1433 1434 1436 1437 1437 1438 1439 1440 1441 1443 1444 1445 1446 1447 1448 1449 1450 1451
1457 1455 1453 1451 1449 1447 1444 1442 1440 1438 1436 1434 1432 1431 1430 1429 1428 1428 1428 1428 1427 1427 1426 1426 1427 1428 1429 1430 1431 1432 1432 1434 1434 1435 1436 1437 1438 1439 1441 1442 1444 1445 1446
1455 1452 1450 1448 1446 1444 1442 1439 1437 1435 1432 1430 1429 1427 1426 1425 1424 1423 1423 1423 1423 1422 1422 1422 1422 1423 1424 1425 1425 1426 1427 1428 1429 1430 1431 1431 1432 1433 1435 1437 1439 1440 1441
1452 1449 1447 1445 1443 1441 1439 1436 1434 1432 1430 1428 1426 1424 1422 1421 1420 1420 1419 1419 1418 1418 1417 1418 1418 1418 1419 1419 1420 1421 1422 1423 1424 1424 1425 1426 1427 1429 1430 1431 1433 1435 1436
1449 1446 1444 1442 1440 1438 1436 1434 1431 1429 1427 1425 1423 1421 1419 1418 1417 1416 1415 1415 1414 1413 1413 1413 1413 1413 1414 1414 1415 1415 1416 1418 1418 1419 1420 1421 1423 1424 1425 1426 1428 1429 1430
1446 1444 1441 1439 1437 1435 1433 1431 1428 1427 1425 1423 1421 1419 1417 1415 1414 1413 1412 1411 1410 1409 1409 1409 1408 1408 1408 1408 1409 1410 1411 1412 1413 1414 1415 1416 1417 1419 1420 1421 1422 1423 1424
1443 1441 1438 1436 1434 1431 1429 1427 1425 1424 1422 1420 1419 1417 1414 1413 1411 1410 1409 1407 1406 1406 1405 1404 1404 1404 1404 1404 1405 1405 1406 1407 1408 1409 1410 1411 1413 1414 1415 1416 1417 1418 1419
1440 1438 1435 1433 1431 1428 1426 1424 1421 1420 1419 1417 1415 1413 1411 1410 1408 1406 1405 1404 1403 1402 1401 1401 1401 1401 1401 1401 1401 1402 1402 1403 1404 1405 1406 1407 1408 1409 1410 1411 1412 1413 1414
1437 1435 1433 1430 1428 1426 1423 1421 1419 1416 1414 1412 1411 1410 1408 1406 1405 1403 1402 1401 1400 1399 1398 1398 1398 1398 1398 1398 1398 1398 1399 1399 1400 1401 1402 1402 1403 1404 1406 1407 1408 1409 1410
1434 1431 1429 1427 1425 1423 1421 1419 1416 1414 1412 1410 1408 1406 1405 1403 1402 1401 1399 1398 1397 1396 1396 1396 1396 1395 1395 1395 1395 1395 1396 1396 1397 1397 1398 1398 1399 1400 1401 1402 1404 1404 1405
1430 1428 1426 1424 1422 1420 1418 1416 1414 1411 1409 1407 1405 1404 1402 1401 1399 1398 1397 1395 1395 1394 1394 1393 1393 1393 1393 1393 1393 1393 1393 1393 1394 1394 1394 1395 1396 1397 1397 1398 1399 1400 1401
1427 1425 1423 1421 1419 1417 1415 1413 1411 1409 1407 1405 1403 1402 1401 1399 1397 1396 1394 1393 1392 1392 1391 1391 1391 1391 1390 1390 1390 1390 1390 1390 1390 1391 1391 1392 1392 1393 1394 1395 1396 1397 1398
1424 1422 1420 1418 1416 1414 1412 1410 1408 1406 1404 1402 1401 1399 1398 1396 1395 1393 1392 1391 1390 1390 1389 1389 1388 1388 1388 1387 1387 1387 1387 1387 1387 1388 1388 1389 1390 1390 1391 1392 1393 1394 1394
1421 1419 1417 1414 1413 1411 1409 1407 1405 1403 1401 1400 1398 1396 1395 1394 1392 1391 1390 1389 1388 1387 1387 1386 1386 1385 1385 1385 1385 1385 1384 1384 1385 1385 1386 1386 1387 1387 1388 1389 1389 1390 1391
1418 1416 1414 1412 1410 1407 1405 1403 1402 1400 1398 1397 1395 1394 1392 1391 1389 1388 1387 1386 1385 1384 1384 1383 1383 1382 1382 1382 1382 1382 1382 1382 1382 1383 1383 1383 1384 1384 1385 1386 1386 1387 1388
1415 1413 1411 1409 1407 1405 1402 1401 1399 1397 1395 1394 1392 1391 1389 1388 1386 1385 1384 1383 1382 1381 1380 1380 1379 1379 1379 1379 1379 1379 1379 1379 1379 1380 1380 1381 1381 1381 1382 1382 1383 1384 1385
1412 1410 1408 1406 1403 1401 1399 1398 1396 1394 1392 1390 1389 1387 1386 1384 1383 1382 1381 1380 1379 1378 1377 1376 1376 1376 1375 1375 1375 1375 1375 1376 1376 1377 1377 1377 1378 1378 1379 1379 1380 1381 1382